Learmonth, Australia

6:18 PM AWST on May 28, 2017 (GMT +0800)
Learmonth

Weather History for YPLM - February, 2013

Change the Weather History Date:

Saturday, February 9, 2013

  Actual Average Record
Temperature  
Mean Temperature 88 °F -  
Max Temperature 98 °F 95 °F 112 °F (2016)
Min Temperature 77 °F 73 °F 67 °F (2017)
Cooling Degree Days 22    
Growing Degree Days 38 (Base 50)    
Moisture  
Dew Point 74 °F    
Average Humidity 66    
Maximum Humidity 89    
Minimum Humidity 34    
Precipitation  
Precipitation 0.00 in 0.03 in - ()
Sea Level Pressure  
Sea Level Pressure 29.80 in    
Wind  
Wind Speed 7 mph ()    
Max Wind Speed 18 mph    
Max Gust Speed 31 mph    
Visibility 6.2 miles    
Events      
Averages and records for this station are not official NWS values.
T = Trace of Precipitation, MM = Missing Value Source: Averaged Metar Reports

Daily Weather History Graph

Daily Weather History Graph

Search for Another Location

Airport or City:

Trip Planner

Search our weather history database for the weather conditions in past years. The results will help you decide how hot, cold, wet, or windy it might be!

Date:

Astronomy

Feb. 09, 2013 Rise Set
Actual Time 6:09 AM AWST 7:05 PM AWST
Civil Twilight 5:46 AM AWST 7:29 PM AWST
Nautical Twilight 5:18 AM AWST 7:56 PM AWST
Astronomical Twilight 4:50 AM AWST 8:25 PM AWST
Moon 4:50 AM AWST (2/9) 6:06 PM AWST (2/9)
Length of Visible Light 13h 43m
Length of Day
12h 56m
Waning Crescent, 2% of the Moon is Illuminated
Feb 9
Waning Crescent
Feb 10
New
Feb 18
First Quarter
Feb 26
Full
Mar 5
Last Quarter

Hourly Weather History & Observations

Time (AWST) Temp. Heat Index Dew Point Humidity Pressure Visibility Wind Dir Wind Speed Gust Speed Precip Events Conditions
12:00 AM 84 °F - 78 °F 76% 29.83 in - NNE 5.8 mph - -  
12:00 AM 84.2 °F 94.1 °F 77.0 °F 79% 29.83 in 6.2 mi NNE 5.8 mph - N/A   Unknown
12:30 AM 84.2 °F 94.1 °F 77.0 °F 79% 29.83 in 6.2 mi NE 5.8 mph - N/A   Unknown
1:00 AM 84.2 °F 94.1 °F 77.0 °F 79% 29.80 in 6.2 mi NE 3.5 mph - N/A   Unknown
1:30 AM 84.2 °F 94.1 °F 77.0 °F 79% 29.80 in 6.2 mi NNE 3.5 mph - N/A   Unknown
2:00 AM 83 °F - 76 °F 74% 29.79 in - North 4.6 mph - -  
2:00 AM 84.2 °F 94.1 °F 77.0 °F 79% 29.77 in 6.2 mi North 4.6 mph - N/A   Unknown
2:30 AM 82.4 °F 89.5 °F 75.2 °F 79% 29.77 in 6.2 mi NW 6.9 mph - N/A   Unknown
3:00 AM 82 °F - 76 °F 78% 29.76 in - WNW 6.9 mph - -  
3:00 AM 82.4 °F 90.9 °F 77.0 °F 84% 29.74 in 6.2 mi WNW 6.9 mph - N/A   Unknown
3:30 AM 82.4 °F 90.9 °F 77.0 °F 84% 29.74 in 6.2 mi WNW 3.5 mph - N/A   Unknown
4:00 AM 80.6 °F 86.2 °F 75.2 °F 84% 29.77 in 6.2 mi ENE 3.5 mph - N/A   Unknown
4:30 AM 80.6 °F 87.1 °F 77.0 °F 89% 29.77 in 6.2 mi NW 3.5 mph - N/A   Unknown
5:00 AM 80 °F - 75 °F 82% 29.78 in - SW 4.6 mph - -  
5:00 AM 80.6 °F 86.2 °F 75.2 °F 84% 29.77 in 6.2 mi SW 4.6 mph - N/A   Unknown
5:30 AM 78.8 °F - 75.2 °F 89% 29.77 in 6.2 mi South 3.5 mph - N/A   Unknown
6:00 AM 77 °F - 74 °F 87% 29.81 in - SE 3.5 mph - -  
6:00 AM 77.0 °F - 73.4 °F 89% 29.80 in 6.2 mi SE 3.5 mph - N/A   Unknown
6:30 AM 78.8 °F - 75.2 °F 89% 29.83 in 6.2 mi SSE 4.6 mph - N/A   Unknown
7:00 AM 78.8 °F - 75.2 °F 89% 29.83 in 6.2 mi SSE 5.8 mph - N/A   Unknown
7:30 AM 82.4 °F 89.5 °F 75.2 °F 79% 29.83 in 6.2 mi South 4.6 mph - N/A   Unknown
8:00 AM 86 °F - 75 °F 64% 29.84 in - South 2.3 mph - -  
8:00 AM 86.0 °F 95.1 °F 75.2 °F 70% 29.83 in 6.2 mi South 2.3 mph - N/A   Unknown
8:30 AM 87.8 °F 97.6 °F 75.2 °F 66% 29.83 in 6.2 mi NNE 6.9 mph - N/A   Unknown
9:00 AM 88 °F - 75 °F 57% 29.85 in - NNE 8.1 mph - -  
9:00 AM 87.8 °F 97.6 °F 75.2 °F 66% 29.83 in 6.2 mi NNE 8.1 mph - N/A   Unknown
9:30 AM 89.6 °F 98.2 °F 73.4 °F 59% 29.83 in 6.2 mi NNE 9.2 mph - N/A   Unknown
10:00 AM 89.6 °F 99.8 °F 75.2 °F 62% 29.83 in 6.2 mi NNE 10.4 mph - N/A   Unknown
10:30 AM 89.6 °F 99.8 °F 75.2 °F 62% 29.83 in 6.2 mi NNE 9.2 mph - N/A   Unknown
11:00 AM 90 °F - 75 °F 53% 29.84 in - NE 12.7 mph - -  
11:00 AM 89.6 °F 99.8 °F 75.2 °F 62% 29.83 in 6.2 mi NE 12.7 mph - N/A   Unknown
11:30 AM 89.6 °F 99.8 °F 75.2 °F 62% 29.83 in 6.2 mi NNE 11.5 mph - N/A   Unknown
12:00 PM 91 °F - 73 °F 47% 29.84 in - NNE 11.5 mph - -  
12:00 PM 91.4 °F 100.1 °F 73.4 °F 55% 29.83 in 6.2 mi NNE 11.5 mph - N/A   Unknown
12:30 PM 93.2 °F 100.5 °F 71.6 °F 49% 29.83 in 6.2 mi North 11.5 mph - N/A   Unknown
1:00 PM 95.0 °F 101.3 °F 69.8 °F 44% 29.80 in 6.2 mi North 11.5 mph - N/A   Unknown
1:30 PM 93.2 °F 100.5 °F 71.6 °F 49% 29.80 in 6.2 mi North 12.7 mph - N/A   Unknown
2:00 PM 95 °F - 69 °F 34% 29.80 in - North 13.8 mph - -  
2:00 PM 95.0 °F 101.3 °F 69.8 °F 44% 29.80 in 6.2 mi North 13.8 mph - N/A   Unknown
2:30 PM 95.0 °F 103.2 °F 71.6 °F 47% 29.77 in 6.2 mi North 15.0 mph - N/A   Unknown
3:00 PM 95 °F - 71 °F 36% 29.78 in - North 15.0 mph - -  
3:00 PM 95.0 °F 103.2 °F 71.6 °F 47% 29.77 in 6.2 mi North 15.0 mph - N/A   Unknown
3:30 PM 96.8 °F 101.8 °F 68.0 °F 39% 29.77 in 6.2 mi North 15.0 mph - N/A   Unknown
4:00 PM 96.8 °F 103.1 °F 69.8 °F 41% 29.74 in 6.2 mi North 15.0 mph - N/A   Unknown
4:30 PM 96.8 °F 103.1 °F 69.8 °F 41% 29.74 in 6.2 mi North 13.8 mph - N/A   Unknown
5:00 PM 95 °F - 72 °F 38% 29.73 in - WNW 15.0 mph - -  
5:00 PM 95.0 °F 103.2 °F 71.6 °F 47% 29.71 in 6.2 mi WNW 15.0 mph - N/A   Unknown
5:30 PM 93.2 °F 100.5 °F 71.6 °F 49% 29.71 in 6.2 mi WNW 18.4 mph - N/A   Unknown
6:00 PM 90 °F - 73 °F 48% 29.73 in - West 15.0 mph - -  
6:00 PM 91.4 °F 100.1 °F 73.4 °F 55% 29.71 in 6.2 mi West 15.0 mph - N/A   Unknown
6:30 PM 87.8 °F 95.6 °F 73.4 °F 62% 29.74 in 6.2 mi West 15.0 mph - N/A   Unknown
7:00 PM 86.0 °F 95.1 °F 75.2 °F 70% 29.74 in 6.2 mi West 13.8 mph - N/A   Unknown
7:30 PM 86.0 °F 95.1 °F 75.2 °F 70% 29.77 in 6.2 mi West 12.7 mph - N/A   Unknown
8:00 PM 85 °F - 75 °F 66% 29.80 in - WSW 12.7 mph - -  
8:00 PM 84.2 °F 92.3 °F 75.2 °F 74% 29.80 in 6.2 mi WSW 12.7 mph - N/A   Unknown
8:30 PM 84.2 °F 92.3 °F 75.2 °F 74% 29.83 in 6.2 mi SSW 5.8 mph - N/A   Unknown
9:00 PM 84 °F - 75 °F 69% 29.84 in - SSW 3.5 mph - -  
9:00 PM 84.2 °F 92.3 °F 75.2 °F 74% 29.83 in 6.2 mi SSW 3.5 mph - N/A   Unknown
9:30 PM 84.2 °F 92.3 °F 75.2 °F 74% 29.83 in 6.2 mi SW 8.1 mph - N/A   Unknown
10:00 PM 84.2 °F 92.3 °F 75.2 °F 74% 29.83 in 6.2 mi SW 10.4 mph - N/A   Unknown
10:30 PM 82.4 °F 89.5 °F 75.2 °F 79% 29.80 in 6.2 mi SW 16.1 mph - N/A   Unknown
11:00 PM 83 °F - 74 °F 69% 29.84 in - SSW 15.0 mph - -  
11:00 PM 82.4 °F 89.5 °F 75.2 °F 79% 29.83 in 6.2 mi SSW 15.0 mph - N/A   Unknown
11:30 PM 82.4 °F 89.5 °F 75.2 °F 79% 29.86 in 6.2 mi SSW 17.3 mph - N/A   Unknown
11:55 PM 82.4 °F 89.5 °F 75.2 °F 79% 29.89 in 6.2 mi SSE 18.4 mph 31.1 mph N/A   Overcast